User: anonymous   Login
Location: Unspecified
(0.0000°N, 0.0000°E)
Time: 12:00:42
(UTC+00:00)
Language:

APRIZESAT 9 - Orbit

View from above orbital plane
View from above orbital plane
View from above satellite
View from above satellite

Ground track
Ground track

The orbit data is extracted from the following two-line orbital elements,

1 40018U 14033J   18348.16379707  .00000018  00000-0  10965-4 0  9992
2 40018  97.7643 206.8604 0071691   6.9465 353.2718 14.69904500240543
Epoch (UTC): 14 December 2018 03:55:52
Eccentricity: 0.0071691
inclination: 97.7643°
perigee height: 611 km
apogee height: 712 km
right ascension of ascending node: 206.8604°
argument of perigee: 6.9465°
revolutions per day: 14.69904500
mean anomaly at epoch: 353.2718°
orbit number at epoch: 24054

The dashed part of the orbit path shows where the satellite is in the earth's shadow,  

DLR